Погода в Рехобот-Бич

США     38°42′59″N   75°04′35″W
темп.,
°C
ветер,
м/с
пор.,
м/с
влажн.,
%
обл.,
%
осадки,
мм/ч
давл.,
гПа
погр.,
м
17 октября, вс
вс1723:00+16сз10128043 6.3 1010989
02:00+16сз1113700 6.4 1011984
05:00+14зсз1012740 0.0 1012775
08:00+13зсз1011761 0.0 1013714
11:00+15сз1011625 0.0 10131170
14:00+17сз101152100 0.0 10122261
17:00+17сз11135122 0.0 10122187
20:00+17сз912525 0.0 10141917
18 октября, пн
пн1823:00+15сз810600 0.0 10141074
02:00+14зсз912631 0.0 1014872
05:00+14зсз812674 0.0 1014769
08:00+13з1013732 0.0 1015696
11:00+15зсз1113590 0.0 10151577
14:00+17сз1215495 0.0 10132462
17:00+17сз1316515 0.0 10142248
20:00+16сз1015555 0.0 10161930
19 октября, вт
вт1923:00+15сз913573 0.0 10181705
02:00+13зсз811651 0.0 1019965
05:00+13сз1012670 0.0 1019932
08:00+13сз911670 0.0 1020788
11:00+14сз810580 0.0 1021674
14:00+18зсз89500 0.0 10191189
17:00+20зсз911510 0.0 10181214
20:00+18зюз711580 0.0 1019425
20 октября, ср
ср2023:00+17з812625 0.0 1019359
02:00+17з71266100 0.0 1019368
05:00+17зсз81269100 0.0 1019416
08:00+16зсз8127011 0.0 1020425
11:00+19зсз79595 0.0 1020581
14:00+21сз46583 0.0 1019226
17:00+21з57540 0.0 1018117
20:00+19з57580 0.0 1019232
21 октября, чт
чт2123:00+18зюз55590 0.0 1020146
02:00+18зюз45660 0.0 1019153
05:00+17юз56720 0.0 1019181
08:00+17ююз57720 0.0 1019189
11:00+20ююз68613 0.0 1018399
14:00+22ююз685511 0.0 1016111
17:00+22ююз685884 0.0 1014130
20:00+20ююз71371100 0.0 1014325